Вернуться в каталог

STARLINK-33691

АктивенСвязьVLEO
NORAD 63462·PAYLOAD·🇺🇸 United States

Запущен Apr 6, 2025 с Cape Canaveral Space Force Station

Loading…

Ближайшие Пролёты (ближайшие 24 часа)

TLE

СвежийSource: CelesTrak SupGP

Эпоха: Sep 15, 2026, 02:14 UTC

1 63462C 25070C   26258.09354167 -.00003137  00000+0 -11366-3 0  2586
2 63462  42.9995 269.8015 0001346 265.7323 226.0525 15.27573803    18

Отслеживайте STARLINK-33691 в реальном времени с AllMySat

Download on the App Store